This is the latest recevied weather packets stored in our database for station/object KB0Y. If no packets are shown the sender has not sent any weather packets the latest 10 day(s).
| Time | Temp. | Humidity | Pressure | Rain* | Wind** | Luminosity | Snow |
|---|---|---|---|---|---|---|---|
| 1777674435 | 20.56° C | 80% | 1015.2 hPa | 0 mm | - | 23 W/m² | - |
| 1777674133 | 20.56° C | 78% | 1014.9 hPa | 0 mm | - | 29 W/m² | - |
| 1777673829 | 21.11° C | 78% | 1014.9 hPa | 0 mm | - | 32 W/m² | - |
| 1777673525 | 21.11° C | 77% | 1014.5 hPa | 0 mm | - | 37 W/m² | - |
| 1777673223 | 21.11° C | 76% | 1015.2 hPa | 0 mm | - | 45 W/m² | - |
| 1777672920 | 21.11° C | 75% | 1015.6 hPa | 0 mm | - | 42 W/m² | - |
| 1777672617 | 21.11° C | 75% | 1014.9 hPa | 0 mm | - | 38 W/m² | - |
| 1777672312 | 21.11° C | 74% | 1015.2 hPa | 0 mm | - | 51 W/m² | - |
| 1777672007 | 21.11° C | 74% | 1015.2 hPa | 0 mm | - | 70 W/m² | - |
| 1777671703 | 21.11° C | 74% | 1014.9 hPa | 0 mm | - | 65 W/m² | - |
| 1777671400 | 21.11° C | 74% | 1015.2 hPa | 0 mm | - | 44 W/m² | - |
| 1777671096 | 21.11° C | 76% | 1015.2 hPa | 0 mm | - | 52 W/m² | - |
| 1777670793 | 21.11° C | 75% | 1015.2 hPa | 0 mm | - | 35 W/m² | - |
| 1777670489 | 21.67° C | 75% | 1015.2 hPa | 0 mm | - | 30 W/m² | - |
| 1777670186 | 21.67° C | 74% | 1015.6 hPa | 0 mm | - | 34 W/m² | - |
| 1777669884 | 22.22° C | 74% | 1015.6 hPa | 0 mm | - | 29 W/m² | - |
| 1777669580 | 22.22° C | 73% | 1015.6 hPa | 0 mm | - | 42 W/m² | - |
| 1777669277 | 22.78° C | 72% | 1015.6 hPa | 0 mm | - | 45 W/m² | - |
| 1777668973 | 22.78° C | 71% | 1015.6 hPa | 0 mm | - | 56 W/m² | - |
| 1777668671 | 23.33° C | 70% | 1015.2 hPa | 0 mm | - | 84 W/m² | - |
| 1777668368 | 23.33° C | 69% | 1014.9 hPa | 0 mm | - | 89 W/m² | - |
| 1777668064 | 23.89° C | 69% | 1015.2 hPa | 0 mm | - | 107 W/m² | - |
| 1777667760 | 23.89° C | 68% | 1015.2 hPa | 0 mm | - | 129 W/m² | - |
| 1777667458 | 23.89° C | 68% | 1015.2 hPa | 0 mm | - | 162 W/m² | - |
| 1777667155 | 24.44° C | 68% | 1015.2 hPa | 0 mm | - | 200 W/m² | - |
* Rain latest hour (hover to see other rain measurements)
** Current wind speed in m/s (hover to see current wind gust speed)